Location: Gand�
(15.0971°N, 12.6564°W)
Time: 14:20:20
(UTC+00:00)

Ariane H10+ - Pass Details

Date: 07 August 2020
Orbit: 239 x 8237 km, 6.8° (Epoch: 19 September)

Event Time Altitude Azimuth Distance (km) Brightness Sun altitude
Exits shadow 04:38:15 37° 229° (SW) 3,434 4.7 -26.9°
Maximum altitude 04:42:54 48° 187° (S) 2,280 4.1 -25.9°
Drops below altitude 10° 04:49:26 10° 113° (ESE) 2,701 5.3 -24.5°
Sets 04:51:10 0° 106° (ESE) 3,245 6.0 -24.1°
